Blythe, CA

12:08 PM PDT on August 30, 2016 (GMT -0700)
Blythe

Weather History for KBLH - April, 2013

Change the Weather History Date:

Monday, April 22, 2013

  Actual Average Record
Temperature  
Mean Temperature 80 °F -  
Max Temperature 96 °F 86 °F 106 °F (2012)
Min Temperature 64 °F 56 °F 43 °F (1970)
Cooling Degree Days 15    
Growing Degree Days 30 (Base 50)    
Moisture  
Dew Point 25 °F    
Average Humidity 13    
Maximum Humidity 23    
Minimum Humidity 8    
Precipitation  
Precipitation 0.00 in - - ()
Sea Level Pressure  
Sea Level Pressure 29.77 in    
Wind  
Wind Speed 7 mph (SSW)    
Max Wind Speed 17 mph    
Max Gust Speed 24 mph    
Visibility 10 miles    
Events      
Averages and records for this station are not official NWS values.
T = Trace of Precipitation, MM = Missing Value Source: NWS Daily Summary

Daily Weather History Graph

Daily Weather History Graph

Search for Another Location

Airport or City:

Trip Planner

Search our weather history database for the weather conditions in past years. The results will help you decide how hot, cold, wet, or windy it might be!

Date:

Astronomy

Apr. 22, 2013 Rise Set
Actual Time 5:59 AM PDT 7:15 PM PDT
Civil Twilight 5:33 AM PDT 7:41 PM PDT
Nautical Twilight 5:02 AM PDT 8:12 PM PDT
Astronomical Twilight 4:30 AM PDT 8:44 PM PDT
Moon 4:16 PM PDT (4/22) 3:47 AM PDT (4/22)
Length of Visible Light 14h 07m
Length of Day
13h 15m
Waxing Gibbous, 88% of the Moon is Illuminated
Apr 22
Waxing Gibbous
Apr 25
Full
May 2
Last Quarter
May 9
New
May 17
First Quarter

Hourly Weather History & Observations

Time (PDT) Temp. Dew Point Humidity Pressure Visibility Wind Dir Wind Speed Gust Speed Precip Events Conditions
12:52 AM 73.9 °F 17.1 °F 12% 29.86 in 10.0 mi WSW 4.6 mph - N/A   Clear
1:52 AM 75.0 °F 17.1 °F 11% 29.84 in 10.0 mi SSW 5.8 mph - N/A   Clear
2:52 AM 66.9 °F 21.9 °F 18% 29.83 in 10.0 mi ESE 5.8 mph - N/A   Clear
3:52 AM 64.9 °F 23.0 °F 20% 29.82 in 10.0 mi Calm Calm - N/A   Clear
5:52 AM 64.9 °F 18.0 °F 16% 29.83 in 10.0 mi Calm Calm - N/A   Clear
6:52 AM 66.0 °F 17.1 °F 15% 29.84 in 10.0 mi NNW 3.5 mph - N/A   Clear
7:52 AM 72.0 °F 19.0 °F 13% 29.86 in 10.0 mi Calm Calm - N/A   Clear
8:52 AM 77.0 °F 19.0 °F 11% 29.86 in 10.0 mi Calm Calm - N/A   Clear
9:52 AM 82.0 °F 24.1 °F 12% 29.86 in 10.0 mi South 9.2 mph - N/A   Clear
10:52 AM 86.0 °F 21.9 °F 10% 29.85 in 10.0 mi South 9.2 mph - N/A   Clear
11:52 AM 89.1 °F 25.0 °F 10% 29.83 in 10.0 mi South 8.1 mph - N/A   Clear
12:52 PM 91.9 °F 26.1 °F 9% 29.80 in 10.0 mi SE 13.8 mph - N/A   Clear
1:52 PM 95.0 °F 25.0 °F 8% 29.77 in 10.0 mi South 15.0 mph 23.0 mph N/A   Clear
2:52 PM 95.0 °F 28.9 °F 10% 29.73 in 10.0 mi South 17.3 mph 21.9 mph N/A   Clear
3:52 PM 96.1 °F 27.0 °F 9% 29.70 in 10.0 mi South 12.7 mph - N/A   Clear
4:52 PM 96.1 °F 25.0 °F 8% 29.68 in 10.0 mi SSW 16.1 mph 24.2 mph N/A   Clear
5:52 PM 95.0 °F 24.1 °F 8% 29.66 in 10.0 mi SW 13.8 mph - N/A   Clear
6:52 PM 91.9 °F 28.9 °F 11% 29.66 in 10.0 mi SW 15.0 mph 21.9 mph N/A   Clear
7:52 PM 89.1 °F 32.0 °F 13% 29.66 in 10.0 mi SW 10.4 mph - N/A   Clear
8:52 PM 84.0 °F 33.1 °F 16% 29.68 in 10.0 mi SW 6.9 mph - N/A   Clear
9:52 PM 82.9 °F 35.1 °F 18% 29.70 in 10.0 mi SSW 13.8 mph - N/A   Clear
10:52 PM 81.0 °F 32.0 °F 17% 29.70 in 10.0 mi South 11.5 mph - N/A   Clear
11:52 PM 75.9 °F 35.1 °F 23% 29.70 in 10.0 mi South 13.8 mph - N/A   Clear